sat.trackr.live / text

‹ back to catalog

SXM-8

NORAD 48838 · 2021-049A

PAYLOAD ACTIVE UNKNOWN

§ Identity

Operator
Country
US
Launch date
2021-06-06
Launch site
AFETR
Launch vehicle
Mass (kg)
RCS (m²)

Purposes: comms

External: N2YO · Heavens-Above · Gunter

§ Orbital elements

Epoch: 2026-09-20T04:04:24.119904Z

Period
1,436.10 min
Inclination
0.0349°
Eccentricity
0.0005804
Mean motion
1.00271812 rev/d
Perigee alt
35,762.1 km
Apogee alt
35,811.1 km
Semi-major
42,164.7 km
B*
0.0000e+0
RAAN
53.6527°
Arg perigee
344.0759°
Mean anomaly
297.3066°
Rev number
1,953

§ Raw data

SXM-81 48838U 21049A   26263.16972361 -.00000210  00000+0  00000+0 0  99932 48838   0.0349  53.6527 0005804 344.0759 297.3066  1.00271812 19539

JSON: /api/v1/satellites/48838 · /tle

For live sub-satellite position, see the globe view (requires WebGL).

§ Visibility from observer

Set your observer location to see the next 7 days of passes ≥ 10°. The values pass through the URL so the page stays shareable.

No JS? Fill the form by hand. The geolocation button needs JavaScript.